QPF
0.05 0.04 0.05 0.04 0.04 0.03 0.03 0.04 0.05 0.04 0.04 0.05 0.05 0.05 0.05 0.04 0.06 0.05 0.04 0.05 0.05 0.05 0.05 0.05 0.04 0.04 0.04 0.04 0.03 0.03 0.04 0.05 0.05 0.04 0.04 0.05 0.07 0.09
0.04 0.03 0.03 0.03 0.03 0.03 0.03 0.03 0.05 0.04 0.04 0.05 0.06 0.05 0.05 0.03 0.03 0.02 0.04 0.05 0.04 0.04 0.04 0.04 0.04 0.03 0.02 0.02 0.03 0.03 0.03 0.04 0.05 0.05 0.04 0.03 0.03 0.04
0.03 0.02 0.02 0.02 0.02 0.02 0.03 0.04 0.04 0.04 0.03 0.03 0.04 0.05 0.05 0.04 0.04 0.04 0.03 0.04 0.04 0.04 0.03 0.04 0.04 0.04 0.03 0.03 0.02 0.03 0.03 0.04 0.05 0.05 0.04 0.03 0.02 0.02
0.02 0.01 0.01 0.01 0.01 0.02 0.03 0.03 0.03 0.04 0.03 0.03 0.03 0.03 0.05 0.04 0.04 0.06 0.04 0.03 0.04 0.04 0.03 0.03 0.03 0.04 0.05 0.04 0.03 0.04 0.04 0.04 0.04 0.04 0.04 0.03 0.02 0.02
0.02 0.02 0.02 0.02 0.01 0.01 0.01 0.02 0.02 0.03 0.03 0.03 0.03 0.03 0.06 0.06 0.05 0.06 0.04 0.03 0.03 0.04 0.04 0.04 0.04 0.05 0.05 0.04 0.04 0.04 0.05 0.05 0.05 0.05 0.05 0.04 0.03 0.02
0.04 0.03 0.03 0.02 0.02 0.01 0.01 0.01 0.02 0.02 0.02 0.02 0.02 0.02 0.05 0.07 0.06 0.09 0.09 0.05 0.03 0.03 0.03 0.03 0.04 0.05 0.06 0.07 0.07 0.07 0.07 0.08 0.08 0.07 0.06 0.06 0.05 0.04
0.03 0.02 0.02 0.02 0.01 0.01 0.01 0.01 0.01 0.01 0.01 0.01 0.02 0.02 0.02 0.04 0.07 0.09 0.10 0.09 0.06 0.04 0.03 0.03 0.04 0.04 0.05 0.07 0.08 0.10 0.11 0.12 0.12 0.10 0.08 0.08 0.07 0.06
0.03 0.02 0.02 0.01 0.01 0.01 0.02 0.01 0.01 0.01 0.01 0.01 0.01 0.01 0.02 0.03 0.06 0.08 0.08 0.07 0.06 0.05 0.03 0.03 0.04 0.03 0.04 0.05 0.08 0.10 0.11 0.11 0.14 0.14 0.12 0.10 0.09 0.08
0.03 0.02 0.02 0.02 0.01 0.01 0.01 0.01 0.01 0.00 0.00 0.00 0.00 0.01 0.01 0.02 0.04 0.06 0.06 0.05 0.04 0.05 0.05 0.03 0.03 0.03 0.03 0.05 0.07 0.09 0.11 0.11 0.11 0.12 0.13 0.13 0.12 0.12
0.02 0.02 0.02 0.01 0.01 0.01 0.01 0.00 0.00 0.00 0.00 0.01 0.01 0.01 0.01 0.03 0.05 0.07 0.07 0.07 0.06 0.04 0.05 0.05 0.03 0.03 0.04 0.05 0.06 0.07 0.09 0.10 0.10 0.11 0.13 0.13 0.12 0.12
0.01 0.01 0.01 0.01 0.01 0.01 0.01 0.01 0.00 0.00 0.01 0.01 0.02 0.02 0.03 0.04 0.05 0.08 0.10 0.09 0.07 0.06 0.05 0.05 0.04 0.03 0.04 0.05 0.06 0.06 0.07 0.07 0.08 0.09 0.10 0.12 0.13 0.13
0.01 0.01 0.01 0.01 0.01 0.01 0.01 0.00 0.01 0.00 0.00 0.01 0.02 0.02 0.01 0.03 0.05 0.05 0.06 0.07 0.06 0.06 0.05 0.04 0.03 0.03 0.04 0.04 0.05 0.06 0.07 0.07 0.07 0.07 0.08 0.09 0.11 0.13
0.02 0.01 0.01 0.01 0.02 0.01 0.01 0.00 0.00 0.01 0.01 0.01 0.02 0.02 0.02 0.02 0.02 0.03 0.04 0.05 0.05 0.05 0.04 0.03 0.03 0.04 0.04 0.04 0.03 0.04 0.05 0.07 0.07 0.08 0.09 0.09 0.11 0.12
0.02 0.03 0.02 0.02 0.02 0.02 0.01 0.01 0.01 0.01 0.01 0.02 0.02 0.03 0.02 0.01 0.02 0.03 0.03 0.04 0.04 0.04 0.05 0.04 0.05 0.03 0.04 0.04 0.04 0.03 0.03 0.04 0.05 0.06 0.07 0.09 0.10 0.13
0.02 0.03 0.03 0.04 0.04 0.03 0.03 0.02 0.02 0.02 0.01 0.01 0.02 0.02 0.02 0.01 0.02 0.03 0.03 0.04 0.04 0.04 0.04 0.03 0.03 0.03 0.03 0.04 0.04 0.03 0.03 0.03 0.03 0.04 0.06 0.08 0.09 0.10
0.02 0.03 0.03 0.03 0.02 0.02 0.02 0.02 0.03 0.04 0.04 0.04 0.04 0.03 0.02 0.02 0.03 0.04 0.04 0.03 0.04 0.04 0.04 0.04 0.04 0.03 0.03 0.03 0.03 0.03 0.03 0.03 0.03 0.04 0.05 0.07 0.09 0.10
0.01 0.02 0.03 0.03 0.02 0.01 0.01 0.02 0.02 0.03 0.04 0.04 0.06 0.07 0.07 0.06 0.05 0.05 0.05 0.04 0.05 0.05 0.06 0.06 0.05 0.04 0.03 0.03 0.03 0.03 0.03 0.03 0.04 0.05 0.06 0.06 0.08 0.10
0.01 0.01 0.01 0.02 0.02 0.02 0.01 0.02 0.02 0.03 0.03 0.03 0.03 0.04 0.06 0.07 0.07 0.06 0.04 0.05 0.05 0.06 0.07 0.07 0.06 0.05 0.03 0.02 0.03 0.03 0.03 0.03 0.03 0.05 0.07 0.07 0.06 0.08
0.01 0.01 0.01 0.01 0.01 0.02 0.02 0.02 0.02 0.03 0.03 0.03 0.03 0.02 0.03 0.03 0.04 0.04 0.04 0.04 0.04 0.04 0.04 0.05 0.05 0.05 0.04 0.02 0.03 0.02 0.02 0.02 0.02 0.04 0.05 0.06 0.06 0.06
0.01 0.01 0.01 0.01 0.01 0.01 0.02 0.02 0.02 0.02 0.02 0.02 0.02 0.02 0.02 0.02 0.02 0.02 0.02 0.03 0.03 0.04 0.04 0.03 0.03 0.03 0.03 0.03 0.03 0.02 0.01 0.01 0.01 0.02 0.03 0.04 0.05 0.06
0.01 0.00 0.00 0.00 0.01 0.01 0.02 0.02 0.03 0.02 0.02 0.01 0.01 0.02 0.02 0.03 0.02 0.02 0.02 0.02 0.02 0.03 0.03 0.03 0.03 0.03 0.03 0.03 0.03 0.04 0.03 0.01 0.01 0.01 0.03 0.04 0.04 0.05
0.00 0.00 0.00 0.00 0.01 0.01 0.01 0.02 0.03 0.03 0.03 0.03 0.02 0.02 0.03 0.04 0.03 0.02 0.02 0.02 0.02 0.02 0.03 0.03 0.03 0.03 0.04 0.04 0.05 0.05 0.03 0.02 0.01 0.01 0.04 0.05 0.03 0.04
0.00 0.00 0.00 0.00 0.00 0.01 0.01 0.02 0.03 0.03 0.03 0.03 0.04 0.04 0.04 0.04 0.03 0.03 0.03 0.03 0.02 0.02 0.02 0.03 0.03 0.04 0.05 0.04 0.04 0.05 0.03 0.01 0.01 0.01 0.02 0.04 0.04 0.04
MSLP
1008.70 1008.73 1008.75 1008.73 1008.65 1008.49 1008.26 1007.96 1007.60 1007.21 1006.81 1006.42 1006.05 1005.70 1005.39 1005.09 1004.82 1004.57 1004.34 1004.14 1003.98 1003.88 1003.83 1003.84 1003.90 1004.01 1004.15 1004.30 1004.47 1004.64 1004.82 1005.00 1005.20 1005.42 1005.67 1005.96 1006.27 1006.60
1008.23 1008.21 1008.18 1008.11 1007.99 1007.80 1007.56 1007.25 1006.91 1006.53 1006.16 1005.80 1005.46 1005.15 1004.86 1004.59 1004.32 1004.07 1003.82 1003.60 1003.40 1003.24 1003.14 1003.10 1003.11 1003.18 1003.30 1003.44 1003.60 1003.76 1003.93 1004.10 1004.28 1004.48 1004.69 1004.93 1005.19 1005.47
1007.77 1007.71 1007.63 1007.53 1007.38 1007.18 1006.93 1006.63 1006.30 1005.95 1005.61 1005.29 1004.99 1004.72 1004.46 1004.22 1003.97 1003.71 1003.45 1003.19 1002.94 1002.73 1002.57 1002.47 1002.44 1002.47 1002.56 1002.70 1002.86 1003.03 1003.21 1003.38 1003.54 1003.70 1003.86 1004.03 1004.21 1004.41
1007.39 1007.29 1007.19 1007.06 1006.90 1006.69 1006.43 1006.14 1005.81 1005.49 1005.17 1004.88 1004.62 1004.39 1004.17 1003.95 1003.71 1003.45 1003.16 1002.86 1002.57 1002.29 1002.07 1001.91 1001.83 1001.84 1001.92 1002.05 1002.22 1002.41 1002.60 1002.77 1002.91 1003.02 1003.12 1003.20 1003.28 1003.37
1007.14 1007.02 1006.90 1006.76 1006.58 1006.36 1006.09 1005.79 1005.47 1005.15 1004.85 1004.58 1004.34 1004.13 1003.93 1003.73 1003.50 1003.23 1002.92 1002.58 1002.23 1001.90 1001.61 1001.39 1001.27 1001.24 1001.31 1001.45 1001.64 1001.84 1002.04 1002.20 1002.31 1002.37 1002.38 1002.36 1002.32 1002.29
1007.06 1006.93 1006.80 1006.64 1006.45 1006.22 1005.93 1005.61 1005.28 1004.94 1004.63 1004.36 1004.13 1003.92 1003.73 1003.53 1003.30 1003.02 1002.68 1002.30 1001.90 1001.50 1001.16 1000.89 1000.72 1000.66 1000.72 1000.86 1001.06 1001.27 1001.47 1001.61 1001.68 1001.66 1001.57 1001.42 1001.25 1001.09
1007.14 1007.01 1006.87 1006.71 1006.50 1006.25 1005.93 1005.58 1005.21 1004.85 1004.51 1004.22 1003.97 1003.76 1003.56 1003.35 1003.10 1002.80 1002.44 1002.02 1001.56 1001.11 1000.71 1000.39 1000.18 1000.09 1000.13 1000.26 1000.46 1000.67 1000.84 1000.95 1000.95 1000.84 1000.63 1000.34 1000.03 999.73
1007.35 1007.22 1007.09 1006.92 1006.70 1006.42 1006.07 1005.68 1005.27 1004.86 1004.48 1004.15 1003.87 1003.64 1003.42 1003.19 1002.92 1002.59 1002.20 1001.73 1001.24 1000.74 1000.28 999.91 999.66 999.54 999.56 999.67 999.85 1000.03 1000.16 1000.21 1000.12 999.90 999.56 999.13 998.66 998.22
1007.64 1007.53 1007.40 1007.23 1007.00 1006.69 1006.31 1005.88 1005.42 1004.97 1004.54 1004.17 1003.85 1003.58 1003.33 1003.07 1002.77 1002.42 1001.98 1001.49 1000.94 1000.40 999.90 999.49 999.20 999.05 999.03 999.11 999.25 999.39 999.46 999.42 999.24 998.89 998.41 997.83 997.23 996.66
1007.97 1007.88 1007.76 1007.59 1007.35 1007.02 1006.61 1006.14 1005.65 1005.15 1004.68 1004.27 1003.91 1003.60 1003.32 1003.03 1002.70 1002.31 1001.84 1001.31 1000.73 1000.15 999.61 999.16 998.83 998.64 998.59 998.63 998.72 998.80 998.80 998.68 998.38 997.92 997.31 996.60 995.87 995.20
1008.30 1008.22 1008.11 1007.94 1007.69 1007.35 1006.93 1006.44 1005.92 1005.40 1004.90 1004.45 1004.06 1003.72 1003.40 1003.08 1002.71 1002.29 1001.79 1001.22 1000.61 1000.00 999.43 998.95 998.60 998.38 998.28 998.28 998.32 998.34 998.27 998.06 997.67 997.11 996.39 995.58 994.76 994.02
1008.61 1008.53 1008.42 1008.26 1008.01 1007.67 1007.25 1006.75 1006.23 1005.69 1005.18 1004.72 1004.30 1003.94 1003.59 1003.23 1002.83 1002.37 1001.84 1001.25 1000.62 999.98 999.40 998.90 998.52 998.27 998.14 998.11 998.10 998.07 997.94 997.66 997.21 996.57 995.80 994.93 994.06 993.29
1008.89 1008.81 1008.71 1008.54 1008.30 1007.96 1007.54 1007.06 1006.54 1006.02 1005.51 1005.04 1004.62 1004.23 1003.86 1003.47 1003.05 1002.56 1002.01 1001.40 1000.75 1000.11 999.51 999.01 998.61 998.35 998.20 998.13 998.10 998.02 997.85 997.54 997.06 996.41 995.62 994.75 993.89 993.14
1009.16 1009.08 1008.97 1008.80 1008.56 1008.23 1007.83 1007.36 1006.86 1006.36 1005.87 1005.41 1004.98 1004.59 1004.20 1003.80 1003.35 1002.85 1002.28 1001.66 1001.02 1000.38 999.79 999.29 998.90 998.63 998.46 998.38 998.32 998.23 998.06 997.74 997.27 996.65 995.90 995.09 994.30 993.61
1009.45 1009.35 1009.23 1009.05 1008.81 1008.49 1008.10 1007.66 1007.19 1006.71 1006.24 1005.80 1005.38 1004.99 1004.59 1004.18 1003.73 1003.22 1002.66 1002.05 1001.42 1000.80 1000.23 999.74 999.36 999.10 998.94 998.85 998.78 998.69 998.53 998.25 997.83 997.27 996.62 995.91 995.23 994.65
1009.77 1009.65 1009.51 1009.33 1009.08 1008.76 1008.39 1007.97 1007.53 1007.08 1006.63 1006.21 1005.81 1005.42 1005.03 1004.62 1004.16 1003.67 1003.12 1002.53 1001.93 1001.35 1000.81 1000.36 1000.00 999.75 999.60 999.51 999.45 999.37 999.23 999.00 998.65 998.20 997.67 997.10 996.57 996.12
1010.14 1010.00 1009.85 1009.65 1009.39 1009.08 1008.72 1008.32 1007.90 1007.48 1007.05 1006.65 1006.26 1005.88 1005.50 1005.09 1004.65 1004.17 1003.65 1003.11 1002.55 1002.02 1001.53 1001.12 1000.79 1000.56 1000.42 1000.33 1000.28 1000.21 1000.11 999.93 999.66 999.32 998.93 998.51 998.12 997.82
1010.56 1010.41 1010.24 1010.03 1009.78 1009.47 1009.12 1008.74 1008.34 1007.93 1007.52 1007.13 1006.75 1006.38 1005.99 1005.60 1005.18 1004.72 1004.24 1003.75 1003.25 1002.77 1002.34 1001.98 1001.69 1001.48 1001.34 1001.26 1001.21 1001.15 1001.06 1000.93 1000.74 1000.50 1000.23 999.95 999.71 999.54
1011.02 1010.88 1010.70 1010.49 1010.23 1009.94 1009.60 1009.23 1008.84 1008.45 1008.05 1007.66 1007.28 1006.90 1006.52 1006.13 1005.72 1005.29 1004.85 1004.40 1003.96 1003.55 1003.18 1002.87 1002.62 1002.43 1002.31 1002.22 1002.16 1002.10 1002.02 1001.92 1001.78 1001.62 1001.44 1001.27 1001.15 1001.08
1011.53 1011.38 1011.21 1011.01 1010.76 1010.48 1010.15 1009.80 1009.42 1009.03 1008.64 1008.24 1007.85 1007.46 1007.06 1006.66 1006.26 1005.85 1005.43 1005.03 1004.65 1004.29 1003.98 1003.72 1003.51 1003.34 1003.22 1003.14 1003.06 1002.99 1002.91 1002.81 1002.70 1002.58 1002.47 1002.38 1002.33 1002.33
1012.05 1011.92 1011.76 1011.57 1011.35 1011.08 1010.77 1010.43 1010.06 1009.67 1009.27 1008.85 1008.44 1008.01 1007.59 1007.17 1006.75 1006.34 1005.95 1005.57 1005.23 1004.93 1004.66 1004.45 1004.27 1004.14 1004.03 1003.94 1003.85 1003.77 1003.67 1003.57 1003.47 1003.37 1003.28 1003.23 1003.22 1003.26
1012.58 1012.46 1012.32 1012.15 1011.95 1011.70 1011.42 1011.09 1010.73 1010.33 1009.91 1009.47 1009.02 1008.55 1008.09 1007.62 1007.18 1006.75 1006.35 1005.98 1005.67 1005.40 1005.18 1005.00 1004.86 1004.75 1004.66 1004.57 1004.48 1004.39 1004.29 1004.18 1004.07 1003.97 1003.89 1003.85 1003.85 1003.90
1013.10 1012.99 1012.87 1012.72 1012.54 1012.31 1012.04 1011.73 1011.37 1010.97 1010.53 1010.06 1009.56 1009.04 1008.52 1008.01 1007.51 1007.04 1006.62 1006.25 1005.93 1005.68 1005.48 1005.34 1005.23 1005.15 1005.08 1005.02 1004.94 1004.85 1004.75 1004.63 1004.52 1004.42 1004.35 1004.30 1004.30 1004.34
Thickness
5703 5702 5701 5701 5701 5700 5699 5698 5694 5691 5692 5696 5697 5700 5700 5701 5701 5700 5700 5700 5700 5699 5698 5697 5696 5695 5695 5695 5695 5696 5696 5697 5697 5698 5697 5697 5696 5696
5698 5697 5697 5696 5696 5695 5694 5693 5692 5689 5687 5690 5691 5692 5693 5695 5695 5695 5695 5695 5694 5693 5692 5691 5690 5689 5689 5689 5690 5691 5692 5693 5693 5693 5693 5692 5692 5692
5694 5693 5691 5691 5690 5689 5689 5687 5686 5684 5682 5683 5684 5686 5686 5687 5687 5688 5688 5688 5687 5687 5686 5685 5684 5684 5684 5684 5685 5686 5687 5688 5688 5688 5688 5687 5687 5687
5689 5688 5686 5686 5684 5684 5682 5681 5680 5679 5677 5675 5677 5677 5677 5679 5679 5680 5681 5681 5681 5681 5680 5679 5678 5678 5678 5678 5679 5680 5681 5682 5683 5682 5683 5682 5682 5682
5684 5682 5681 5680 5679 5678 5677 5675 5674 5674 5671 5670 5669 5669 5669 5670 5671 5672 5673 5673 5673 5673 5673 5672 5672 5671 5671 5671 5672 5674 5675 5676 5677 5677 5677 5677 5677 5677
5679 5678 5676 5675 5674 5673 5671 5669 5667 5666 5664 5663 5662 5661 5661 5662 5662 5663 5663 5664 5664 5665 5664 5664 5664 5664 5664 5664 5665 5667 5668 5670 5671 5671 5671 5671 5672 5672
5673 5672 5672 5671 5669 5667 5666 5663 5661 5658 5657 5655 5654 5653 5652 5652 5652 5653 5653 5653 5654 5655 5655 5655 5655 5656 5656 5657 5658 5659 5661 5663 5664 5665 5665 5665 5666 5667
5666 5665 5665 5664 5662 5661 5659 5657 5655 5652 5649 5647 5646 5644 5644 5644 5643 5644 5643 5644 5645 5646 5645 5646 5647 5647 5647 5648 5650 5652 5653 5655 5657 5658 5659 5660 5661 5661
5659 5657 5657 5656 5654 5652 5650 5649 5647 5645 5643 5640 5638 5637 5636 5636 5636 5635 5634 5635 5636 5637 5636 5637 5638 5638 5640 5641 5641 5643 5645 5647 5648 5650 5652 5654 5655 5655
5652 5650 5648 5646 5645 5643 5642 5640 5638 5637 5635 5633 5631 5630 5630 5629 5628 5627 5626 5626 5627 5627 5627 5628 5629 5629 5631 5632 5633 5634 5636 5638 5639 5641 5643 5645 5646 5648
5645 5643 5641 5639 5637 5636 5634 5632 5630 5629 5628 5626 5624 5623 5622 5621 5620 5619 5617 5618 5619 5619 5618 5618 5620 5620 5621 5623 5624 5625 5627 5629 5630 5632 5634 5636 5638 5640
5637 5636 5634 5632 5630 5628 5626 5623 5622 5621 5619 5618 5616 5615 5614 5613 5612 5611 5611 5610 5610 5611 5611 5610 5611 5611 5613 5614 5615 5617 5618 5620 5622 5624 5626 5628 5630 5632
5630 5628 5627 5625 5622 5620 5618 5616 5614 5612 5611 5609 5608 5607 5606 5605 5604 5604 5603 5602 5602 5603 5604 5603 5603 5603 5604 5606 5607 5608 5609 5611 5613 5615 5617 5620 5622 5624
5624 5622 5620 5617 5615 5613 5611 5609 5607 5605 5603 5601 5600 5599 5598 5597 5597 5596 5596 5595 5596 5596 5596 5596 5597 5597 5597 5598 5599 5600 5601 5603 5605 5607 5609 5611 5613 5616
5617 5616 5613 5610 5608 5606 5604 5602 5600 5598 5596 5594 5593 5592 5591 5590 5590 5589 5589 5589 5589 5589 5590 5590 5591 5591 5591 5592 5592 5592 5594 5595 5597 5599 5601 5603 5606 5608
5610 5608 5605 5603 5600 5598 5596 5595 5593 5591 5589 5588 5587 5586 5585 5584 5583 5583 5582 5582 5582 5583 5583 5583 5583 5584 5584 5585 5585 5585 5586 5587 5589 5591 5593 5596 5598 5601
5603 5600 5598 5596 5594 5591 5589 5587 5586 5584 5583 5582 5581 5580 5579 5579 5578 5576 5575 5575 5575 5575 5575 5576 5576 5577 5577 5577 5578 5578 5579 5580 5582 5584 5586 5588 5591 5594
5596 5593 5591 5588 5586 5583 5582 5580 5579 5578 5577 5576 5575 5574 5573 5572 5571 5570 5569 5568 5568 5568 5568 5568 5569 5569 5570 5569 5569 5570 5572 5573 5575 5576 5578 5581 5585 5587
5590 5587 5584 5581 5579 5577 5575 5574 5573 5572 5570 5570 5569 5568 5567 5566 5565 5564 5563 5562 5561 5562 5561 5561 5561 5562 5564 5565 5564 5563 5565 5566 5568 5569 5571 5574 5577 5580
5584 5581 5578 5575 5573 5571 5570 5569 5568 5566 5565 5564 5563 5561 5560 5559 5558 5557 5556 5555 5554 5554 5555 5555 5555 5555 5557 5558 5559 5558 5558 5560 5562 5564 5565 5567 5570 5572
5578 5575 5572 5570 5568 5566 5565 5564 5562 5561 5560 5559 5557 5555 5554 5552 5552 5551 5550 5548 5547 5548 5548 5549 5549 5548 5549 5550 5552 5553 5553 5553 5555 5557 5559 5562 5565 5568
5574 5571 5569 5566 5564 5562 5561 5559 5558 5557 5555 5554 5553 5551 5549 5548 5547 5546 5545 5544 5543 5542 5542 5542 5542 5542 5543 5545 5547 5547 5548 5548 5549 5550 5552 5555 5559 5563
5570 5567 5565 5562 5560 5558 5557 5556 5554 5553 5551 5549 5548 5547 5545 5543 5542 5541 5540 5539 5538 5537 5537 5537 5537 5537 5538 5539 5540 5541 5541 5542 5543 5545 5547 5549 5552 5556